Powrót do katalogu

ARIANE 2 DEB

AktywnyGTO
NORAD 27034·DEBRIS·🇫🇷 France

Wystrzelony Jan 27, 1989 z Guiana Space Centre

Loading…

TLE

Starzejące sięSource: Space-Track

Epoka: Sep 14, 2026, 02:11 UTC

1 27034U 89006P   26257.09099683 -.00000059  00000-0  34426-2 0  9991
2 27034   7.8083 266.0859 7107607  69.5985  25.1707  2.24861808206605

Śledź ARIANE 2 DEB w czasie rzeczywistym z AllMySat

Download on the App Store